Flag for Japan Weather past 2 weeks in Minamisōma, Japan

Now
48 °F

Passing clouds.


Feels Like: 47 °F
Forecast: 40 / 64 °F
Wind: 3 mph from Southeast

Location: Sendai Airport

Current Time: Mar 30, 2015 at 7:50:34 AM

Latest Report: Mar 30, 2015 at 7:00 AM


Visibility: N/A

Pressure: 29.98 "Hg

Humidity: 87%

Dew point: 45 °F

Location of MinamisōmaLocation

Historic Weather in Minamisōma — Graph

°F

Minamisōma temperature yesterday

Maximum temperature yesterday: 57 °F (at 3:00 PM)
Minimum temperature yesterday: 45 °F (at 6:00 AM)
Average temperature yesterday: 54 °F

Past Weeks' High & Low Weather Summary

 TemperatureHumidityPressure
High64 °F (Mar 27, 1:03 PM)100% (Mar 17, 4:00 PM)30.42 "Hg (Mar 17, 4:00 PM)
Low32 °F (Mar 15, 7:00 AM)12% (Mar 27, 4:00 PM)29.74 "Hg (Mar 19, 1:00 PM)
Average47 °F64%30.05 "Hg
* Reported Mar 15 7:00 AM — Mar 30 7:00 AM, Minamisōma, Weather by CustomWeather, © 2015

Note: Actual official high and low records may vary slightly from our data, if they occured in-between our weather recording intervals... More about our weather records

Advertising

Minamisōma weather history for previous 24 hours

 ConditionsComfort  
Time TempWeatherWind HumidityBarometerVisibility
7:00 AM
Mon, Mar 30
48 °FPassing clouds.3 mph87%29.98 "HgN/A
6:00 AM43 °FPassing clouds.3 mph87%29.98 "HgN/A
9:00 PM
Sun, Mar 29
54 °FLight rain. Partly cloudy.2 mph67%29.92 "HgN/A
8:00 PM52 °FPassing clouds.3 mph72%29.92 "HgN/A
7:00 PM52 °FPassing clouds.7 mph72%29.89 "HgN/A
6:00 PM54 °FPassing clouds.5 mph72%29.86 "HgN/A
5:00 PM57 °FPartly sunny.8 mph44%29.86 "HgN/A
4:00 PM57 °FBroken clouds.5 mph48%29.89 "HgN/A
3:00 PM57 °FBroken clouds.7 mph48%29.89 "HgN/A
2:00 PM54 °FMostly cloudy.8 mph63%29.89 "HgN/A
1:00 PM55 °FLight rain. Partly sunny.3 mph55%29.89 "HgN/A
12:00 PM55 °FBroken clouds.7 mph51%29.92 "HgN/A
11:00 AM55 °FPartly sunny.9 mph51%29.95 "HgN/A
10:00 AM54 °FPassing clouds.7 mph51%29.95 "HgN/A
9:00 AM54 °FPassing clouds.7 mph51%29.98 "HgN/A
8:00 AM54 °FPassing clouds.5 mph38%29.98 "HgN/A
7:00 AM50 °FPassing clouds.7 mph50%29.98 "HgN/A
Weather by CustomWeather, © 2015

See weather overviewHow to use our weather pages